Location: Unspecified
(22.6800°N, 112.2000°E)
Time: 04:32:26
(UTC+08:00)

S-56A Canister/Altair - Pass Details

Date: 28 July 2021
Orbit: 632 x 2500 km, 38.9° (Epoch: 27 September)

Event Time Altitude Azimuth Distance (km) Brightness Sun altitude
Rises 21:39:55 0° 303° (WNW) 6,081 13.3 -29.9°
Reaches altitude 10° 21:44:16 10° 307° (NW) 4,935 12.5 -30.7°
Maximum altitude 21:57:40 61° 25° (NNE) 2,045 9.5 -33.0°
Enters shadow 22:00:25 49° 74° (ENE) 2,115 9.4 -33.4°
Drops below altitude 10° 22:06:47 10° 104° (ESE) 3,472 - -34.5°
Sets 22:09:19 0° 108° (ESE) 4,223 - -34.9°
